Total_Precipitation_Accumulation
0.96 1.10 1.18 1.24 1.23 1.76 1.26 1.05 0.80 1.29 1.30 1.03 0.69 0.89 0.63 0.60 0.58 1.16 1.04 0.77 0.36 0.39 0.33 0.37 0.49 0.58 0.36 0.33 0.36 0.38 0.37 0.40 0.42 0.34 0.39 0.12 0.08 0.10 0.18 0.20 0.16 0.09 0.10 0.10 0.22 0.14 0.20 0.21 0.10 0.08 0.13 0.21 0.25 0.20 0.29 0.22 0.31 0.19 0.16 0.12 0.13 0.08 0.04 0.02 0.01 0.03 0.02 0.01 0.00 0.00 0.00 0.00 0.03 0.00 0.00 0.00 0.00 0.00 0.00 0.00 0.01 0.00 0.02 0.00 0.01 0.06 0.09 0.19
1.21 1.35 1.11 0.95 1.10 1.29 1.43 1.44 1.27 1.22 1.46 0.93 0.93 0.88 0.80 0.65 0.57 0.60 1.37 1.07 0.83 0.38 0.35 0.32 0.40 0.58 0.61 0.45 0.40 0.41 0.52 0.45 0.38 0.30 0.15 0.10 0.09 0.12 0.20 0.22 0.17 0.09 0.07 0.15 0.12 0.25 0.16 0.27 0.10 0.19 0.18 0.26 0.23 0.39 0.14 0.54 0.20 0.17 0.09 0.05 0.03 0.04 0.11 0.10 0.07 0.21 0.02 0.01 0.02 0.04 0.00 0.00 0.07 0.00 0.00 0.00 0.01 0.00 0.00 0.02 0.01 0.04 0.03 0.04 0.07 0.11 0.13 0.75
1.33 1.25 1.50 1.24 0.98 1.10 1.23 1.41 1.09 1.27 1.29 1.18 0.85 0.72 0.89 0.75 0.71 0.63 0.56 1.06 1.13 0.74 0.31 0.81 0.48 0.51 0.67 0.76 0.43 0.60 0.75 0.61 0.64 0.41 0.04 0.08 0.10 0.13 0.17 0.17 0.15 0.09 0.09 0.18 0.18 0.38 0.23 0.21 0.17 0.17 0.34 0.28 0.53 0.59 0.28 0.80 0.30 0.18 0.05 0.05 0.03 0.00 0.10 0.10 0.07 0.35 0.08 0.06 0.02 0.02 0.11 0.00 0.06 0.00 0.00 0.01 0.03 0.02 0.00 0.03 0.09 0.03 0.09 0.11 0.23 0.16 0.82 1.57
1.08 1.31 1.33 1.30 1.39 1.03 1.05 1.23 1.48 0.92 1.17 1.35 1.16 1.16 0.77 1.00 0.73 0.74 0.62 1.10 1.21 1.33 0.50 0.37 0.80 0.59 0.62 0.70 0.84 0.64 0.75 0.95 0.73 0.20 0.04 0.05 0.10 0.13 0.12 0.14 0.11 0.15 0.14 0.16 0.35 0.20 0.22 0.26 0.54 0.22 0.33 0.35 0.27 0.40 0.66 0.77 0.21 0.40 0.15 0.05 0.03 0.00 0.00 0.02 0.02 0.11 0.23 0.01 0.03 0.03 0.06 0.06 0.01 0.11 0.00 0.01 0.03 0.38 0.02 0.00 0.02 0.15 0.19 0.23 0.23 0.40 1.23 1.55
0.92 0.95 1.50 1.30 1.40 1.44 1.06 1.16 1.55 1.12 1.28 1.19 1.35 1.00 1.20 0.84 1.05 0.72 0.81 0.89 1.00 1.29 1.19 0.57 0.49 1.07 0.77 0.72 0.75 1.28 1.04 0.93 0.63 0.10 0.34 0.13 0.09 0.12 0.16 0.12 0.11 0.13 0.15 0.23 0.27 0.22 0.38 0.34 0.47 0.70 0.45 0.51 0.18 0.72 0.37 0.35 0.22 0.30 0.12 0.05 0.02 0.01 0.00 0.01 0.02 0.09 0.20 0.11 0.02 0.02 0.06 0.13 0.15 0.00 0.02 0.03 0.09 0.06 0.34 0.02 0.06 0.20 0.17 0.27 0.29 0.21 1.50 1.01
0.70 0.87 0.99 1.39 1.36 1.40 1.26 1.13 1.35 1.68 1.01 1.37 0.97 1.51 1.06 1.46 1.19 1.01 0.85 0.78 1.17 1.26 1.28 1.23 0.55 0.86 1.15 0.96 1.48 1.34 1.27 1.04 3.40 0.19 0.05 0.12 0.15 0.11 0.08 0.11 0.12 0.11 0.18 0.23 0.32 0.31 0.59 0.81 0.61 0.81 0.64 0.55 0.33 0.32 0.22 0.15 0.30 0.47 0.12 0.12 0.05 0.01 0.00 0.04 0.02 0.10 0.16 0.26 0.16 0.18 0.22 0.08 0.21 0.24 0.05 0.05 0.01 0.03 0.16 0.45 0.11 0.14 0.12 0.20 0.20 0.16 0.34 0.56
0.70 0.69 0.86 1.07 1.17 1.23 1.18 1.35 1.24 1.69 1.35 1.13 1.35 0.84 1.58 1.11 1.50 1.10 0.93 0.80 1.22 0.94 1.59 1.59 1.46 0.62 1.24 2.69 3.24 1.93 1.32 0.53 0.15 1.63 0.20 0.15 0.17 0.15 0.14 0.12 0.20 0.12 0.13 0.21 0.30 0.40 0.43 0.71 0.53 0.50 0.61 0.55 0.16 0.19 0.12 0.24 0.40 0.30 0.34 0.04 0.04 0.03 0.03 0.03 0.02 0.07 0.12 0.14 0.24 0.27 0.07 0.24 0.36 0.29 0.26 0.11 0.04 0.13 0.05 0.11 0.55 1.46 0.27 0.27 0.20 0.17 0.45 0.20
0.63 0.77 0.68 0.82 1.01 1.13 1.28 1.06 1.12 1.52 1.84 1.07 1.24 1.19 1.01 1.42 1.23 1.27 1.15 0.92 0.87 1.29 1.48 1.78 1.92 1.49 1.62 3.58 3.61 2.46 1.46 0.55 0.17 0.40 0.36 0.32 0.13 0.17 0.11 0.11 0.17 0.13 0.15 0.17 0.24 0.38 0.41 0.53 0.72 0.48 0.57 0.56 0.42 0.13 0.10 0.31 0.66 0.38 0.23 0.14 0.04 0.05 0.12 0.36 0.07 0.02 0.07 0.11 0.16 0.14 0.33 0.32 0.44 0.29 0.28 0.23 0.42 0.26 0.23 0.32 0.45 1.19 1.39 1.23 1.01 0.24 0.28 0.62
0.55 0.76 1.09 0.76 0.82 1.23 1.12 1.18 1.19 1.23 1.50 1.76 1.00 1.51 0.93 0.93 1.62 1.35 1.33 1.02 1.30 1.44 1.70 2.41 1.76 2.03 1.88 1.94 1.52 1.72 0.60 0.22 0.13 0.06 0.36 0.30 0.19 0.17 0.09 0.25 0.23 0.17 0.16 0.13 0.18 0.29 0.41 0.44 0.60 0.41 0.70 0.40 0.41 0.47 0.17 0.62 0.67 0.20 0.17 0.13 0.14 0.21 0.08 0.17 0.20 0.09 0.06 0.10 0.10 0.12 0.29 0.38 0.66 0.41 0.46 0.72 0.26 0.75 0.88 0.71 0.97 0.64 0.50 2.58 0.94 1.05 0.43 0.85
0.41 0.81 0.60 1.04 0.80 1.09 1.20 1.19 1.22 1.23 1.46 1.70 1.48 1.18 1.82 0.88 1.18 1.65 1.27 1.46 1.36 1.90 1.69 2.26 2.93 2.66 3.64 3.59 2.36 1.45 0.24 0.26 0.05 0.01 0.06 0.18 0.10 0.06 0.07 0.16 0.14 0.23 0.16 0.14 0.16 0.22 0.35 0.34 0.27 0.53 0.78 0.49 0.55 0.41 0.23 0.44 0.44 0.08 0.22 0.16 0.08 0.15 0.35 0.39 0.27 0.20 0.29 0.13 0.07 0.17 0.35 0.36 0.35 0.52 0.60 0.36 0.20 0.31 1.52 1.22 1.50 1.62 1.10 1.06 2.49 1.02 1.43 0.54
0.58 0.49 0.55 0.70 0.97 1.03 1.31 1.14 1.36 1.28 1.36 1.85 1.53 1.35 1.22 1.61 1.02 1.50 1.34 1.52 1.63 1.33 2.34 1.80 3.58 3.36 4.02 2.69 2.10 0.83 0.06 0.02 0.01 0.02 0.14 0.11 0.10 0.08 0.09 0.12 0.20 0.28 0.19 0.18 0.14 0.15 0.20 0.41 0.36 1.16 0.87 0.67 0.56 0.52 0.41 0.28 0.18 0.17 0.04 0.09 0.15 0.39 0.32 0.34 0.21 0.24 0.37 0.30 0.10 0.22 0.71 0.24 0.38 0.37 0.80 0.58 0.32 0.25 0.63 1.26 1.38 1.81 0.90 1.52 0.61 1.49 1.10 1.61
0.51 0.67 0.48 0.58 0.77 0.96 1.41 1.42 1.27 1.38 1.66 1.71 1.81 1.49 1.28 1.30 1.24 1.28 1.64 1.72 1.88 1.55 2.05 2.87 2.88 4.11 2.87 3.85 1.44 0.48 0.06 0.10 0.00 0.01 0.01 0.09 0.15 0.09 0.15 0.06 0.07 0.23 0.34 0.34 0.23 0.17 0.23 0.35 0.93 1.88 0.99 0.57 0.99 0.68 0.39 0.38 0.24 0.30 0.14 0.34 0.18 0.17 0.39 0.30 0.42 0.52 0.26 0.47 0.17 0.25 0.43 0.25 0.31 0.40 0.50 0.66 0.64 0.40 0.53 0.53 0.96 1.73 1.51 1.07 1.30 1.51 0.75 1.24
0.54 0.60 0.48 0.47 0.71 0.87 0.98 1.18 1.44 1.60 1.63 1.65 2.08 1.56 1.63 1.25 1.33 1.47 1.30 2.08 1.79 1.95 2.84 3.23 4.25 5.38 4.86 5.05 1.10 0.24 0.05 0.07 0.03 0.01 0.01 0.04 0.13 0.13 0.04 0.12 0.12 0.18 0.29 0.39 0.38 0.41 0.23 0.46 1.28 1.54 2.03 1.29 0.69 0.58 0.96 0.27 0.49 0.41 0.43 0.51 0.53 0.38 0.29 0.31 0.33 0.98 0.37 0.42 0.26 0.25 0.46 0.58 0.45 0.55 0.58 0.57 0.72 0.51 0.32 0.51 1.18 0.82 2.07 1.79 1.24 1.01 1.13 1.28
0.44 0.57 0.63 0.64 0.48 0.97 0.76 1.02 1.42 1.57 2.00 2.25 1.85 2.17 1.44 1.62 1.44 1.58 1.62 1.89 1.80 2.23 3.00 5.04 5.23 5.70 5.72 2.65 1.20 0.67 0.17 0.01 0.02 0.07 0.06 0.04 0.13 0.13 0.13 0.07 0.12 0.29 0.37 0.31 0.40 0.45 0.56 0.33 1.05 1.56 2.12 1.37 1.11 0.57 0.48 0.69 0.37 0.50 0.60 0.54 0.63 0.60 0.24 0.13 0.18 0.41 0.54 0.44 0.39 0.32 0.62 0.60 0.65 0.54 0.67 0.56 0.57 0.80 0.44 0.30 0.47 0.76 1.33 1.64 1.61 1.34 0.87 0.77
0.58 0.38 0.41 0.63 0.62 0.72 0.69 0.86 1.13 1.38 1.58 2.34 2.43 2.55 1.74 1.46 1.65 1.64 2.51 2.14 2.25 2.50 3.52 5.48 8.16 8.23 6.02 2.04 1.50 1.13 0.24 0.10 0.07 0.06 0.15 0.12 0.11 0.23 0.13 0.12 0.16 0.12 0.40 0.51 0.44 0.41 0.55 0.62 1.07 1.80 1.78 1.57 0.96 0.86 0.56 0.56 0.54 0.66 0.95 1.02 0.87 0.33 0.27 0.05 0.06 0.36 0.40 0.73 0.82 0.78 0.82 0.87 0.69 1.08 0.69 0.65 0.74 0.67 0.82 0.51 0.49 0.38 0.44 1.63 1.80 1.41 1.23 1.18
0.84 0.62 0.52 0.52 0.57 0.75 0.69 0.78 1.20 1.48 1.57 1.92 2.45 2.83 2.58 1.73 1.70 2.12 2.74 2.33 2.37 2.91 4.49 6.79 11.78 5.42 5.74 2.51 1.10 1.14 0.77 0.25 0.17 0.21 0.29 0.13 0.14 0.58 0.13 0.11 0.19 0.28 0.31 0.91 0.49 0.59 0.74 0.96 1.18 1.25 1.33 1.28 1.47 1.74 1.30 0.87 1.09 1.26 0.51 0.70 0.62 0.30 0.33 0.21 0.09 0.09 0.17 1.00 0.74 0.74 0.80 0.63 0.77 0.71 0.74 0.67 0.61 0.75 0.77 0.79 0.76 0.49 0.29 0.36 1.06 1.78 1.16 1.31
1.21 0.94 0.64 0.70 0.65 0.71 0.87 0.93 0.88 1.25 1.65 1.90 2.44 2.45 2.76 2.70 2.10 2.69 3.60 3.47 4.68 5.09 4.58 7.26 6.21 8.98 5.05 4.55 1.93 0.95 0.86 0.35 0.42 0.13 0.26 0.19 0.06 0.42 0.25 0.27 0.35 0.41 0.56 1.11 1.29 0.95 1.58 1.12 1.66 0.90 1.55 1.83 1.15 1.85 1.67 1.41 1.11 1.03 0.58 0.41 0.40 0.29 0.66 0.16 0.16 0.11 0.41 0.67 1.14 0.91 0.82 0.87 0.99 0.76 0.89 0.65 0.55 0.58 0.63 0.68 0.80 0.84 0.48 0.42 0.40 1.39 1.47 1.05
0.97 0.99 0.92 0.87 0.66 0.61 0.48 0.98 1.44 1.37 1.81 2.30 2.03 3.51 2.83 3.41 2.90 4.03 5.50 6.29 5.85 7.23 7.47 8.06 5.18 9.40 6.50 3.85 1.77 0.77 0.38 0.38 0.52 0.49 0.27 0.17 0.13 0.31 0.65 0.41 0.74 0.63 1.13 1.04 2.75 1.79 1.87 1.65 1.13 1.13 1.46 1.33 1.51 1.98 1.84 1.50 0.78 0.42 0.41 0.38 0.42 0.24 0.27 0.25 0.19 0.48 0.34 0.27 1.44 0.71 0.50 0.90 0.79 0.69 0.91 0.99 0.70 0.48 0.49 0.54 0.73 0.75 0.82 0.56 0.39 0.49 0.73 1.23
0.90 0.91 0.89 1.02 0.87 0.66 0.54 0.74 1.28 1.73 1.76 2.26 3.78 3.96 3.98 5.45 5.77 4.95 6.99 6.69 6.48 9.03 8.46 9.21 9.04 6.77 5.62 3.25 1.39 0.68 0.38 0.50 0.77 0.70 0.83 0.37 0.69 0.50 1.01 1.29 0.72 1.07 1.59 1.85 2.36 1.46 2.62 1.91 1.36 3.34 1.96 1.19 1.01 0.79 0.74 0.64 0.41 0.24 0.10 0.13 0.22 0.28 0.22 0.43 0.43 0.18 0.32 0.36 0.44 0.73 0.62 0.82 0.80 0.76 0.91 0.97 0.76 0.57 0.44 0.39 0.46 0.59 0.87 0.80 0.64 0.56 0.50 0.64
0.65 0.76 0.91 0.79 1.03 1.17 0.90 0.70 1.08 1.78 2.45 3.95 4.72 7.36 7.46 6.54 7.26 6.58 7.05 5.49 3.23 3.00 3.25 4.57 3.66 3.28 3.31 2.13 1.51 0.87 0.59 0.63 0.78 1.30 0.53 0.56 0.56 0.99 2.05 1.67 3.53 2.22 1.56 0.85 1.40 1.12 1.45 1.15 1.56 1.14 0.91 0.60 0.28 0.21 0.20 0.50 0.44 0.31 0.32 0.35 0.33 0.22 0.36 0.71 1.13 0.51 0.38 0.26 0.52 0.57 0.92 0.74 0.82 1.00 0.88 1.00 0.83 0.62 0.52 0.39 0.35 0.35 0.51 0.81 0.91 0.68 0.73 1.01
0.73 0.69 0.72 0.87 1.10 1.23 1.32 1.31 1.23 2.00 2.60 2.67 3.99 4.15 5.28 3.62 3.87 4.59 4.63 3.61 2.26 1.99 2.14 2.50 2.75 2.19 1.89 1.97 1.54 0.63 0.96 3.55 1.95 1.07 1.14 1.87 1.46 1.24 2.56 1.65 3.22 2.64 1.60 0.44 1.51 1.43 1.13 2.24 0.75 0.56 0.30 0.18 0.15 0.15 0.22 0.32 0.46 1.04 1.04 0.51 0.50 0.26 0.92 0.42 0.48 0.38 0.72 1.01 0.59 0.44 0.60 0.74 0.90 0.89 0.91 0.74 0.61 0.70 0.59 0.41 0.35 0.35 0.35 0.48 0.66 0.76 0.52 0.77
1.05 0.87 0.67 0.93 0.97 1.41 1.45 1.37 1.76 2.31 3.03 3.37 4.03 2.59 3.12 2.86 2.72 4.29 2.61 2.87 1.81 2.26 1.93 2.17 2.23 1.92 1.71 1.78 2.51 1.69 1.09 2.50 2.05 2.05 2.44 1.39 3.95 1.27 2.85 0.88 1.43 0.88 0.76 1.42 2.70 2.51 2.39 1.12 0.57 0.42 0.18 0.12 0.22 0.20 0.42 0.45 0.61 0.49 0.73 0.73 0.74 1.04 0.64 0.94 0.87 0.84 0.54 1.11 0.74 0.42 0.53 0.93 1.00 0.91 0.86 0.92 0.73 0.74 0.53 0.40 0.31 0.26 0.28 0.27 0.29 0.52 0.60 0.55
0.66 0.84 0.97 1.03 1.07 1.22 1.88 1.67 2.40 3.05 4.51 4.58 2.94 2.45 2.20 2.27 1.99 2.57 2.98 2.97 2.45 1.73 1.71 2.03 1.92 1.63 1.61 1.41 1.63 2.03 1.59 1.34 1.99 1.51 2.77 1.34 4.94 1.28 1.71 1.48 1.83 0.96 1.71 1.76 1.24 1.75 1.68 0.45 0.31 0.21 0.12 0.05 0.15 0.27 0.37 0.73 0.77 1.04 1.49 0.78 0.64 0.91 0.61 0.85 0.65 1.03 0.99 0.58 0.64 0.52 0.44 0.77 1.06 1.10 0.98 0.90 0.81 0.61 0.61 0.52 0.28 0.24 0.22 0.23 0.26 0.24 0.46 0.60
0.58 0.71 0.88 1.19 1.40 1.47 1.32 2.18 3.33 4.88 5.09 1.96 1.77 1.54 2.04 2.04 2.03 1.76 2.29 2.51 2.46 1.97 1.83 1.85 1.66 1.48 1.36 1.76 2.25 1.40 1.60 1.47 1.16 2.28 2.44 1.57 2.15 1.84 1.89 0.92 0.95 1.63 1.27 1.36 1.12 0.62 0.57 0.53 0.23 0.12 0.07 0.08 0.12 0.23 0.37 0.63 0.99 0.82 0.90 1.17 0.78 0.85 1.14 0.51 0.82 0.56 0.93 0.69 1.15 0.54 0.78 0.66 0.97 1.18 1.21 1.00 0.67 0.62 0.54 0.49 0.38 0.29 0.26 0.24 0.24 0.24 0.24 0.45
0.81 0.63 0.88 0.99 1.49 1.23 1.81 2.93 6.02 3.45 2.53 3.84 2.07 2.02 1.84 1.53 1.66 2.19 2.32 3.13 2.65 1.91 1.75 2.25 1.90 1.47 1.73 1.68 1.39 1.25 1.67 3.13 1.22 1.96 1.11 0.97 2.07 2.53 1.91 1.39 1.44 1.55 1.17 0.47 1.40 1.07 0.31 0.31 0.41 0.36 0.04 0.10 0.38 0.46 0.31 0.31 0.60 0.52 0.43 0.50 0.69 1.02 1.10 0.84 0.69 0.46 1.08 1.21 0.48 0.77 0.93 1.55 1.04 1.11 1.24 1.21 0.80 0.56 0.47 0.51 0.39 0.32 0.25 0.24 0.22 0.34 0.27 0.26
1.42 1.23 0.98 1.04 1.10 1.63 3.23 5.25 3.08 2.15 3.58 2.54 1.64 1.43 1.70 1.72 1.85 2.79 2.40 3.10 3.32 1.95 2.40 2.74 1.33 1.98 1.13 2.14 2.16 3.34 3.10 1.76 1.94 2.02 2.17 1.80 2.91 1.73 1.97 2.41 1.68 1.71 0.70 1.19 0.97 1.12 0.65 0.21 0.27 0.19 0.12 0.13 0.15 0.19 0.18 0.15 0.31 0.45 0.40 0.08 0.42 0.75 0.98 1.20 0.90 1.08 1.20 0.94 1.06 0.50 1.14 1.17 0.93 0.91 0.97 0.92 0.85 0.65 0.38 0.38 0.28 0.21 0.21 0.22 0.24 0.27 0.29 0.31
2.50 1.76 1.57 1.79 1.73 2.93 5.52 3.03 1.43 2.82 4.20 2.19 2.00 2.04 1.42 1.59 3.90 3.30 2.38 3.71 3.55 2.45 1.82 2.11 1.49 3.03 0.82 2.01 1.49 2.88 2.86 2.99 1.78 2.27 3.17 3.05 1.99 5.16 2.11 2.38 1.80 1.34 1.54 2.62 3.44 1.95 0.78 0.36 0.33 0.22 0.24 0.31 0.19 0.37 0.17 0.16 0.36 0.29 0.27 0.18 0.42 0.39 0.53 0.62 1.09 1.06 1.22 1.24 1.27 1.05 0.76 0.91 0.79 0.84 0.69 0.69 0.71 0.75 0.54 0.37 0.30 0.20 0.14 0.16 0.18 0.20 0.27 0.33
3.20 2.66 1.88 2.00 2.32 1.93 1.43 1.23 1.89 1.71 1.24 1.30 1.40 1.53 1.98 1.96 2.57 4.54 2.66 5.73 4.88 2.90 1.46 2.37 1.47 4.04 0.73 1.56 1.75 1.48 2.65 5.03 1.46 2.55 2.69 3.72 3.17 3.07 2.24 2.67 1.46 1.54 1.19 1.80 1.86 2.78 0.41 0.46 0.21 0.22 0.21 0.23 0.22 0.09 0.08 0.09 0.32 0.25 0.23 0.62 0.24 0.22 0.61 0.63 1.07 1.18 0.84 1.15 1.10 0.95 0.97 0.84 0.81 0.89 0.68 0.62 0.71 0.69 0.68 0.51 0.35 0.27 0.16 0.11 0.12 0.15 0.17 0.20
2.24 2.78 2.66 2.46 2.42 2.98 1.81 2.02 0.90 0.76 1.06 1.14 1.65 1.16 1.72 3.47 3.26 3.41 4.42 5.67 6.35 3.21 7.58 1.70 1.89 1.73 1.93 2.06 2.24 1.76 1.82 2.13 1.86 2.68 2.14 3.20 5.70 5.05 2.91 2.12 1.91 1.67 1.90 1.14 1.25 1.47 0.88 0.73 0.47 0.50 0.19 0.28 0.11 0.07 0.07 0.08 0.22 0.29 0.70 0.63 0.59 0.87 1.01 1.08 0.88 1.23 1.12 1.58 1.59 1.02 0.94 0.91 0.97 0.91 0.64 0.47 0.44 0.52 0.53 0.51 0.40 0.27 0.18 0.13 0.10 0.10 0.13 0.15
1.70 2.63 3.33 4.17 6.35 7.33 4.44 2.48 1.44 1.50 0.76 1.04 1.19 1.70 2.76 3.07 4.41 4.25 6.57 6.11 6.90 2.74 2.04 3.89 1.44 2.27 1.69 2.15 3.12 1.91 2.08 2.41 3.06 3.82 3.40 4.68 4.92 5.57 4.66 2.60 2.94 3.01 2.58 2.11 1.27 1.11 2.35 0.58 0.46 1.27 0.72 0.16 0.06 0.09 0.10 0.20 0.12 0.63 1.08 0.76 0.99 0.75 1.22 1.58 1.81 1.60 2.66 2.25 1.53 1.04 0.66 0.48 0.75 0.66 0.65 0.45 0.31 0.29 0.33 0.38 0.40 0.36 0.29 0.19 0.14 0.11 0.12 0.15
2.62 2.16 3.10 4.77 5.01 3.22 2.67 2.60 2.47 1.97 1.73 1.68 2.25 2.61 3.18 5.06 3.97 5.66 6.67 5.09 4.18 3.21 2.00 2.33 1.55 1.95 1.98 1.61 2.57 2.19 2.33 2.22 2.63 2.86 5.65 4.58 6.05 4.24 4.53 5.20 5.79 4.03 3.97 3.08 2.37 1.49 1.58 1.28 1.23 0.62 0.07 0.13 0.18 0.26 0.39 0.24 0.44 0.56 1.26 1.08 1.06 1.55 1.27 1.76 2.02 2.03 2.23 1.84 1.42 1.07 0.67 0.50 0.85 0.58 0.38 0.24 0.15 0.16 0.21 0.37 0.30 0.32 0.45 0.58 0.42 0.28 0.28 0.31
2.34 2.97 4.26 3.61 2.53 2.15 2.15 1.76 2.75 3.21 3.04 3.31 3.47 5.02 3.73 5.73 4.48 5.64 5.25 4.33 2.69 2.69 1.88 2.41 2.16 2.14 1.56 1.30 1.99 1.89 1.86 2.45 2.74 2.87 2.65 3.10 4.46 5.51 4.28 4.28 4.74 4.93 4.95 3.90 3.34 2.01 1.56 1.44 0.91 0.68 0.36 0.26 0.33 0.48 0.85 1.42 1.32 1.11 1.86 1.85 1.17 1.54 1.35 1.48 1.95 2.24 1.53 0.99 0.76 0.68 0.67 1.17 0.84 0.44 0.18 0.13 0.10 0.10 0.09 0.16 0.38 0.40 0.36 0.53 0.49 0.49 0.60 0.52
2.31 3.48 3.67 3.47 3.32 2.40 1.67 1.28 2.93 2.81 3.85 5.14 5.11 5.77 4.78 6.50 7.84 4.82 4.65 2.71 2.30 3.33 1.76 1.81 1.48 1.92 1.65 1.75 1.98 1.69 1.87 1.91 1.90 2.16 2.14 2.15 3.01 4.09 3.51 2.56 5.27 3.94 4.14 3.19 2.33 2.36 1.90 1.50 1.47 1.16 0.81 1.41 0.51 0.62 0.80 1.47 1.49 0.96 1.11 1.32 1.33 1.79 1.32 0.95 0.97 1.14 0.81 0.49 0.52 0.43 0.42 0.50 0.48 0.36 0.20 0.19 0.17 0.15 0.16 0.15 0.14 0.23 0.55 0.36 0.38 0.40 0.41 0.40
3.28 4.42 5.84 4.87 4.02 2.35 2.29 2.99 3.21 3.43 4.86 6.44 5.28 5.71 5.83 6.98 6.58 3.44 2.69 2.18 2.60 1.27 1.24 0.91 1.37 1.51 2.48 1.53 1.61 1.30 1.61 1.56 2.22 1.81 1.75 2.04 2.01 2.90 4.42 2.75 2.92 3.01 3.51 2.92 2.35 1.94 2.12 2.53 2.22 1.74 1.12 0.76 0.36 0.19 0.39 0.27 0.30 0.31 0.93 1.06 0.99 0.73 0.53 0.69 0.57 0.74 0.59 0.29 0.22 0.31 0.75 0.79 0.31 0.31 0.16 0.12 0.17 0.15 0.14 0.12 0.12 0.09 0.12 0.34 0.36 0.19 0.21 0.18
4.04 5.05 4.58 4.57 4.86 3.97 3.61 2.43 2.73 4.15 5.90 6.81 7.60 7.05 8.71 7.70 5.66 4.07 2.47 1.94 1.25 1.24 0.94 2.17 1.40 1.60 2.15 1.84 1.60 1.37 1.27 1.92 1.24 1.92 1.69 1.98 2.28 1.78 2.28 3.21 2.52 2.32 3.47 2.72 2.55 2.18 1.19 1.38 1.60 1.20 0.51 0.33 0.16 0.21 0.24 0.74 0.67 1.94 1.50 1.56 1.48 0.59 0.40 0.55 0.38 0.34 0.33 0.19 0.26 0.34 0.38 0.57 0.16 0.15 0.07 0.07 0.08 0.09 0.10 0.10 0.10 0.11 0.11 0.12 0.16 0.13 0.13 0.12
7.27 7.63 5.40 7.19 4.83 4.09 3.62 3.56 4.73 5.59 7.83 7.87 7.97 10.26 8.43 5.27 4.22 3.05 1.98 1.33 1.31 0.86 1.25 1.48 1.88 1.73 2.23 1.60 1.34 1.92 1.85 1.99 1.65 1.52 2.04 1.67 1.67 1.39 1.16 1.56 2.54 2.08 2.49 2.33 2.78 2.19 1.50 1.10 0.91 0.81 0.53 1.13 0.07 0.08 0.43 1.08 1.03 0.90 0.71 1.10 0.81 0.45 0.30 0.64 0.44 0.37 0.69 0.43 0.22 0.29 0.21 0.11 0.06 0.08 0.04 0.03 0.04 0.06 0.04 0.05 0.06 0.06 0.05 0.05 0.06 0.06 0.05 0.04
8.35 7.32 9.60 6.67 4.52 3.09 3.55 4.25 6.44 7.75 8.71 7.11 7.47 9.03 6.79 4.10 3.21 2.12 1.29 0.72 0.83 1.02 1.01 1.69 2.72 1.64 2.19 1.93 1.82 1.70 1.54 1.08 2.27 1.32 1.94 1.56 2.53 1.22 1.37 1.09 1.38 1.96 1.90 1.84 1.63 1.96 1.69 1.18 1.09 0.33 0.31 0.55 0.12 0.52 0.73 0.54 1.00 1.45 1.00 0.58 0.50 0.99 2.25 1.53 1.04 0.62 0.77 0.65 0.26 0.19 0.12 0.16 0.08 0.20 0.06 0.21 0.04 0.03 0.04 0.02 0.01 0.01 0.02 0.02 0.02 0.02 0.02 0.01
6.70 5.89 4.72 3.89 3.59 3.62 4.15 6.03 6.81 10.59 9.16 9.60 8.20 5.61 4.12 3.00 2.14 1.61 1.13 1.06 1.26 1.17 1.26 1.18 1.83 1.21 1.70 1.88 1.86 1.53 1.72 1.13 1.40 1.59 1.18 1.38 1.95 1.55 0.87 0.88 1.05 1.03 1.62 1.80 1.44 1.37 1.14 1.10 1.10 0.78 0.28 0.57 0.53 1.23 2.18 2.21 2.20 1.26 0.71 0.91 0.49 2.35 1.41 1.04 1.63 1.93 1.09 1.15 0.54 0.19 0.16 0.16 0.14 0.17 0.15 0.04 0.02 0.02 0.01 0.00 0.00 0.00 0.00 0.00 0.00 0.00 0.00 0.00
5.01 5.23 7.83 4.23 3.29 3.40 5.31 5.54 8.49 10.96 11.82 10.68 7.56 5.22 3.57 2.28 1.56 0.92 0.66 0.62 0.50 1.22 0.99 0.80 1.10 1.13 1.11 1.24 1.42 1.58 1.26 1.10 1.29 0.77 1.19 1.92 1.06 0.86 0.77 0.69 0.59 0.58 0.76 1.64 1.47 1.32 1.22 1.18 1.01 0.74 0.40 1.11 1.95 2.13 1.69 1.49 0.99 2.52 0.86 0.81 1.38 0.94 0.92 1.62 0.69 0.75 0.90 0.82 1.26 0.51 0.26 0.25 0.15 0.11 0.08 0.04 0.11 0.05 0.00 0.01 0.00 0.00 0.00 0.00 0.00 0.00 0.00 0.00
6.49 7.94 5.93 4.66 3.33 3.41 5.37 7.63 13.81 13.77 10.93 9.73 7.32 4.70 3.26 2.30 1.07 0.99 0.78 0.43 0.84 0.95 0.80 0.94 0.86 0.99 0.80 0.92 0.94 1.32 1.42 1.07 1.08 1.41 0.69 1.47 0.66 1.24 0.58 0.38 0.33 0.39 0.35 0.72 1.08 1.62 1.46 1.33 1.11 1.11 0.83 0.88 1.43 1.56 0.97 1.17 1.26 1.36 1.63 2.31 1.71 1.35 1.29 0.81 1.51 1.24 0.98 0.90 0.51 0.42 0.38 0.22 0.06 0.05 0.06 0.05 0.05 0.03 0.02 0.02 0.02 0.00 0.00 0.00 0.00 0.00 0.00 0.00
5.63 5.01 5.62 4.49 3.75 4.87 7.54 13.66 14.24 12.80 9.82 7.56 5.82 4.10 2.48 1.76 1.08 0.83 0.67 0.56 1.05 0.64 0.82 0.75 0.84 1.01 1.14 0.71 0.96 1.00 1.46 1.24 1.25 1.53 1.08 1.02 0.45 0.77 0.34 0.58 0.38 0.30 0.27 0.79 1.24 1.25 1.61 2.01 1.32 1.11 1.51 2.14 0.70 0.89 0.47 0.52 0.66 1.39 1.36 1.05 1.28 1.13 1.23 1.65 1.25 0.73 0.63 1.13 0.70 0.71 0.39 0.22 0.14 0.13 0.03 0.06 0.02 0.03 0.08 0.02 0.01 0.01 0.00 0.01 0.00 0.00 0.00 0.14
6.15 7.54 6.00 4.98 4.35 4.30 7.08 13.90 11.69 8.97 8.22 6.17 5.17 3.55 2.40 1.14 1.06 1.05 0.66 0.54 0.53 0.83 0.54 1.74 0.67 1.06 0.89 0.77 0.83 0.72 1.28 1.13 0.92 0.85 0.86 0.69 0.85 0.61 0.79 0.53 0.33 0.63 0.51 0.77 0.84 1.20 1.11 1.75 1.52 1.45 1.03 1.29 0.55 0.46 0.51 0.55 0.88 0.79 0.93 0.80 0.75 1.21 1.63 1.77 1.72 0.80 0.82 0.80 0.50 0.77 1.17 0.42 0.28 0.26 0.03 0.03 0.01 0.03 0.00 0.01 0.09 0.01 0.01 0.01 0.01 0.01 0.03 0.06
7.01 5.62 6.46 5.63 5.11 4.92 7.20 8.41 8.51 9.21 7.63 5.88 3.99 2.50 1.91 1.14 1.02 1.15 0.76 0.90 1.04 0.85 0.92 0.83 1.14 0.87 0.84 0.85 0.93 0.80 0.95 1.14 1.03 0.80 0.57 0.39 0.34 0.45 0.17 0.32 0.66 0.34 0.70 0.82 0.63 1.11 2.16 2.43 2.22 1.27 1.28 1.25 0.81 0.89 2.42 2.07 1.03 0.80 0.56 0.40 0.69 0.83 0.67 0.68 0.61 0.86 1.30 1.06 1.83 1.32 2.15 0.63 0.50 0.20 0.02 0.02 0.00 0.04 0.02 0.00 0.51 0.53 0.02 0.00 0.00 0.00 0.00 0.00
5.86 5.68 7.02 8.18 6.41 6.72 5.64 8.39 8.90 7.37 6.21 5.14 3.01 2.38 1.62 1.40 1.27 1.16 0.77 0.65 0.77 0.79 0.60 0.73 0.65 0.55 0.89 0.60 1.13 0.89 0.90 1.53 1.04 0.92 0.76 0.50 0.32 0.13 0.12 0.19 0.31 0.77 0.53 0.76 0.81 3.00 2.32 2.13 1.74 1.78 1.83 1.63 1.25 2.08 1.69 1.86 1.88 1.87 1.28 0.72 0.45 0.43 0.73 0.81 1.81 2.60 1.99 0.77 0.62 1.26 1.27 0.54 0.21 0.15 0.23 0.09 0.05 0.11 0.03 0.06 0.01 0.34 0.10 0.00 0.00 0.00 0.00 0.00
5.12 5.53 6.23 11.26 9.37 9.10 7.49 4.96 5.46 5.43 4.79 3.61 2.84 2.42 1.69 1.45 1.09 0.95 0.72 0.54 0.52 0.92 0.72 0.67 0.50 0.44 0.58 0.76 1.37 0.76 1.90 0.96 1.06 0.82 0.85 0.71 0.46 0.25 0.62 0.26 0.53 0.50 0.71 0.85 0.75 1.52 1.36 1.31 1.86 2.18 2.39 2.38 2.36 2.32 2.03 1.82 1.34 1.23 1.02 0.62 0.98 0.83 0.76 1.21 1.51 1.15 1.69 1.15 0.65 0.76 0.54 0.22 0.07 0.05 0.01 0.01 0.08 0.01 0.04 0.07 0.20 0.05 0.36 0.04 0.01 0.01 0.00 0.00
5.68 6.59 7.78 9.92 14.30 10.81 6.09 4.46 4.02 3.39 3.36 3.00 3.04 2.20 1.75 1.39 1.02 1.17 1.03 1.37 0.65 0.79 0.66 1.12 1.00 0.99 1.05 0.97 1.29 1.68 0.98 1.52 1.29 1.51 0.81 0.72 0.55 0.40 0.51 0.27 0.58 0.38 0.35 0.55 2.33 1.39 1.16 1.34 1.38 1.59 1.48 1.27 0.99 0.81 0.84 0.64 0.87 1.09 0.81 0.79 0.65 0.75 0.77 0.90 1.20 1.88 1.61 1.20 1.10 0.67 0.56 0.31 0.22 0.09 0.06 0.19 0.28 0.12 0.22 0.23 0.11 0.15 0.11 0.08 0.04 0.03 0.02 0.01
5.56 5.94 6.63 9.34 10.30 10.45 7.02 4.25 3.57 3.48 2.81 2.37 2.45 1.98 1.57 1.36 1.00 0.85 0.65 1.90 0.61 0.67 0.78 0.72 0.88 0.84 0.85 0.92 1.12 1.23 1.33 1.13 0.86 1.15 1.10 0.65 0.57 0.80 0.75 0.52 0.36 0.38 0.33 0.93 1.18 1.28 2.18 1.55 1.26 1.19 1.02 0.89 0.71 1.04 0.53 0.49 0.68 0.76 0.64 0.47 0.49 0.48 0.77 0.99 1.32 1.16 1.12 1.08 1.13 0.73 0.65 0.63 0.25 0.16 0.20 0.08 0.19 0.13 0.10 0.02 0.00 0.00 0.00 0.00 0.01 0.01 0.00 0.00
6.09 5.17 4.59 6.34 6.92 8.56 7.30 5.58 3.42 3.19 3.16 2.41 2.13 1.80 1.16 0.99 1.03 1.19 1.15 0.90 1.07 0.59 1.23 1.44 1.15 0.75 0.61 0.57 0.73 0.91 0.94 1.24 1.09 0.71 0.64 0.71 0.73 0.71 0.88 0.68 0.77 0.45 1.66 2.20 1.17 1.19 1.85 1.57 1.36 0.94 0.85 0.71 0.64 0.48 0.34 0.40 0.53 0.42 0.38 0.47 0.45 0.43 0.56 0.93 0.82 0.69 0.89 1.34 1.17 0.78 0.44 0.44 0.30 0.27 0.26 0.18 0.03 0.02 0.04 0.02 0.01 0.01 0.00 0.00 0.00 0.00 0.00 0.00
4.59 4.51 3.65 4.56 3.77 4.28 4.64 4.24 2.64 2.44 2.60 2.52 2.58 2.11 1.56 1.10 0.89 0.83 1.01 0.99 0.83 1.43 0.60 1.24 1.07 0.74 0.61 0.76 0.89 0.87 0.87 1.44 1.36 1.16 0.75 0.58 0.56 0.72 0.80 0.98 0.92 1.01 1.16 1.36 1.40 2.48 2.05 1.47 1.18 0.84 0.82 0.82 0.61 0.46 0.32 0.44 0.37 0.51 0.47 0.33 0.33 0.36 0.43 0.59 0.67 0.68 0.71 0.99 0.90 0.77 0.51 0.28 0.36 0.28 0.26 0.21 0.14 0.21 0.22 0.04 0.02 0.01 0.00 0.00 0.00 0.00 0.00 0.00
4.31 3.65 3.42 2.85 2.74 3.13 2.90 2.39 2.26 2.74 3.03 2.07 3.42 2.54 2.04 1.50 1.09 0.76 1.02 1.01 1.39 0.90 0.97 0.95 0.71 0.50 0.56 0.62 0.86 0.96 0.87 0.76 0.80 0.91 0.94 0.68 0.99 0.57 0.61 0.71 0.93 1.22 1.35 1.65 2.22 2.14 1.77 1.59 1.02 0.76 0.94 0.91 0.71 0.56 0.43 0.38 0.53 0.44 0.44 0.52 0.49 0.33 0.54 0.73 0.68 0.53 0.54 0.67 0.75 0.87 0.81 0.33 0.16 0.22 0.08 0.06 0.05 0.03 0.01 0.01 0.01 0.00 0.00 0.00 0.00 0.00 0.00 0.00
3.66 2.86 3.45 3.18 2.96 2.57 2.57 2.81 2.63 2.67 3.02 3.22 3.14 2.29 1.75 1.55 1.22 0.98 0.87 0.83 0.85 0.99 0.90 0.81 0.87 0.79 1.06 1.20 1.19 0.80 0.86 0.77 0.74 0.76 0.86 1.33 1.11 1.66 1.30 1.09 0.91 1.15 1.33 1.81 2.00 2.37 2.91 1.99 1.45 1.45 1.86 1.35 0.82 0.70 0.44 0.55 0.63 0.57 0.47 0.53 0.84 0.76 0.67 0.55 0.67 0.62 0.63 0.44 0.61 0.49 0.61 0.26 0.23 0.16 0.08 0.04 0.01 0.01 0.01 0.01 0.00 0.00 0.00 0.00 0.00 0.00 0.00 0.00
2.90 2.38 2.32 3.56 3.14 2.83 2.32 2.17 2.25 3.58 3.73 2.86 2.56 2.28 1.60 1.33 1.00 1.15 1.42 1.51 1.09 0.94 0.81 0.76 0.72 0.83 1.10 1.35 1.30 1.02 0.94 1.10 1.05 1.27 1.44 1.86 1.15 1.28 1.26 1.13 1.15 1.26 1.92 1.67 2.83 3.54 2.75 2.55 1.98 1.81 2.27 1.67 0.87 0.51 0.48 0.57 0.99 1.04 0.84 0.42 0.32 0.33 0.33 0.41 0.67 0.54 0.34 0.67 0.34 0.44 0.42 0.45 0.32 0.19 0.33 0.07 0.08 0.08 0.07 0.04 0.02 0.03 0.01 0.01 0.01 0.00 0.00 0.00